Location: Greenwich
(51.4790°N, 0.0090°E)
Time: 15:45:30
(UTC+01:00)

X-37B - Visible Passes

Search period start: 01 October 2022 00:00
Search period end: 11 October 2022 00:00
Orbit: 329 x 342 km, 45.0° (Epoch: 29 September)

Date Brightness Start Highest point End Pass type
(mag) Time Alt. Az. Time Alt. Az. Time Alt. Az.
01 Oct 3.4 04:30:26 11° ESE 04:30:26 11° ESE 04:30:41 10° ESE visible
01 Oct 2.2 06:01:40 13° SW 06:03:22 20° S 06:05:35 10° SE visible
02 Oct 2.9 04:50:05 16° SE 04:50:05 16° SE 04:50:58 10° SE visible
02 Oct 2.6 06:21:49 10° SW 06:23:30 14° SSW 06:25:12 10° SSE visible
03 Oct 2.6 05:09:46 17° SSE 05:09:46 17° SSE 05:11:01 10° SE visible
04 Oct 2.7 05:29:32 14° S 05:29:32 14° S 05:30:39 10° SSE visible
